Wind_Speed
21 18 16 14 13 13 12 12 11 10 9 7 6 5 5 5 4 3 2 1 1 2 2 3 4 5 6 6 6 7 8 9 10 10 9 10 9 9 9 9 8 8
22 20 17 15 14 13 12 12 11 10 9 7 6 5 4 4 3 3 2 0 1 1 0 0 1 2 4 5 5 6 7 8 9 9 9 10 10 10 10 10 9 9
22 21 19 16 15 14 13 12 11 9 8 7 6 5 4 3 3 4 2 1 1 2 2 2 2 2 2 3 4 4 5 6 7 8 8 9 9 10 11 11 11 12
23 21 19 17 16 14 13 13 11 9 8 7 6 5 5 4 4 4 4 3 2 2 4 4 4 3 1 2 3 3 4 5 5 6 7 9 8 8 10 11 11 12
23 21 19 18 17 16 14 14 13 10 8 7 5 5 6 5 5 5 5 5 4 4 4 5 5 4 3 2 2 2 2 3 3 3 4 6 7 7 8 8 10 11
23 22 21 20 19 17 15 14 13 12 10 8 6 5 6 7 6 6 6 6 6 5 5 6 6 6 5 4 4 3 3 2 1 2 2 3 4 5 5 6 8 9
23 23 23 22 20 18 16 15 14 14 13 10 7 8 9 9 9 9 8 9 8 7 7 6 7 7 7 7 7 6 5 4 3 2 1 1 1 2 3 4 5 7
21 23 23 21 20 18 17 16 15 15 15 12 10 11 13 11 11 10 11 12 12 11 10 9 8 7 8 9 10 10 9 8 7 6 4 3 2 1 1 2 2 3
18 20 21 20 19 18 17 17 16 16 14 12 11 13 15 15 13 13 14 14 14 14 14 12 10 8 8 10 12 14 14 12 10 10 8 7 6 5 3 3 3 3
15 16 17 17 17 17 17 16 16 15 14 12 12 13 14 14 14 14 15 17 18 18 17 15 13 11 10 11 13 15 16 16 15 13 12 10 9 9 8 7 6 5
14 15 14 14 15 16 16 16 15 14 15 14 12 11 10 11 12 12 14 18 20 20 20 20 18 16 14 13 14 15 16 18 19 18 15 13 12 11 11 10 10 9
13 14 14 14 15 15 16 16 14 11 12 12 10 9 9 9 11 12 15 20 21 20 20 21 21 20 18 17 17 16 15 16 20 21 19 17 15 14 13 13 13 12
12 12 12 13 15 15 14 14 12 9 8 9 9 9 9 11 14 14 14 17 21 21 19 18 18 18 18 19 19 19 17 17 20 23 22 20 18 17 15 15 14 14
11 10 10 11 12 11 9 10 11 10 10 10 9 8 10 12 14 13 12 14 18 18 17 16 15 16 16 17 17 18 19 20 22 23 22 20 20 19 18 16 16 16
10 10 9 8 8 8 8 10 10 10 11 10 9 9 11 11 11 12 13 14 16 16 15 14 14 14 14 14 15 16 17 19 20 20 20 19 19 19 18 18 17 18
10 10 8 6 7 7 7 7 7 8 8 7 7 7 9 9 9 9 10 11 12 12 11 10 10 11 11 12 13 14 16 17 17 17 16 17 17 18 18 18 18 18
9 9 8 8 8 8 8 7 6 6 5 4 4 5 5 5 5 5 5 6 7 7 6 6 6 6 7 8 9 10 11 12 13 13 14 14 15 16 16 16 15 15
10 9 10 10 11 11 11 10 10 9 9 8 7 6 5 4 3 2 2 1 1 1 2 3 4 5 5 6 7 7 8 9 10 11 11 12 13 13 13 13 12 13
11 11 11 13 14 14 14 13 13 12 12 11 11 10 9 8 7 6 5 4 4 4 5 5 6 6 7 7 7 7 7 8 9 10 11 11 11 11 11 11 12 13
11 12 13 14 15 15 15 14 13 13 12 11 10 9 9 8 8 6 5 5 4 5 5 6 7 8 9 9 9 10 9 9 9 9 10 10 11 11 10 11 12 13
10 11 12 13 13 13 13 12 12 10 9 8 7 7 7 6 5 4 4 3 4 4 6 7 8 9 10 10 11 11 11 11 10 9 9 10 11 11 11 11 11 12
11 11 12 11 11 11 11 11 10 9 8 7 6 6 5 4 4 3 2 2 3 5 6 7 8 8 8 9 9 10 10 11 11 10 10 10 10 11 11 11 11 11
11 12 12 12 11 11 11 11 10 10 9 8 7 6 5 3 2 1 1 2 3 4 6 8 8 8 8 8 9 10 10 10 10 10 10 9 8 9 9 9 9 8
6 7 9 10 10 11 10 10 10 9 9 8 6 5 4 2 1 0 1 2 3 4 6 8 8 8 9 10 11 11 10 10 10 10 9 8 6 6 5 5 4 3
3 3 4 5 6 7 7 7 7 7 7 6 5 4 3 2 1 1 2 3 4 5 6 7 7 8 8 9 10 10 9 9 9 8 7 6 4 2 1 1 2 3
6 5 3 2 3 4 4 4 4 4 3 2 2 2 2 2 2 3 4 5 6 6 7 7 7 7 8 8 8 8 7 7 7 7 5 4 3 2 3 4 5 6
Wind_Direction
209 208 209 208 202 200 199 198 198 198 196 193 185 171 166 174 183 186 181 135 104 96 97 90 83 81 84 94 106 115 121 120 117 118 116 110 102 96 96 95 94 96
208 207 207 207 203 202 204 203 201 202 203 205 203 188 174 182 195 199 202 233 330 344 160 39 40 50 61 76 92 102 111 116 119 122 117 110 105 98 92 91 94 97
208 206 207 209 206 204 206 207 206 207 212 218 220 212 204 208 215 214 215 245 310 313 286 281 304 331 22 51 64 78 92 103 114 123 119 110 107 101 92 90 94 96
207 208 210 211 210 208 208 208 208 209 214 222 227 226 227 230 232 226 225 232 256 299 298 286 282 284 310 18 36 51 73 90 105 119 119 113 110 106 101 97 97 98
211 212 211 210 209 208 210 211 211 210 209 213 218 227 236 238 240 236 233 239 246 265 288 290 282 272 268 291 335 3 27 70 99 116 115 112 111 109 108 106 103 103
214 216 212 209 208 209 214 216 216 215 210 206 206 223 240 242 245 245 242 247 251 255 269 285 283 272 269 278 292 305 318 338 46 112 116 108 105 107 113 115 111 109
215 217 212 209 208 211 218 221 223 224 222 217 214 230 244 247 250 254 256 259 262 265 270 278 283 279 277 281 286 290 291 292 292 281 230 176 119 110 118 130 127 117
215 215 212 210 210 214 220 221 223 227 229 230 229 238 250 255 257 258 259 260 263 269 271 269 274 281 287 290 291 289 285 280 279 276 272 264 254 249 163 176 174 145
213 215 215 214 214 216 216 214 217 223 229 236 239 244 254 262 266 265 265 266 266 269 272 269 265 270 287 295 290 286 284 282 279 276 273 271 268 268 264 250 239 218
209 214 217 216 215 216 213 210 212 219 230 243 250 253 261 271 273 270 271 272 269 270 274 273 270 271 282 285 281 282 285 285 282 278 275 275 275 273 268 263 258 248
206 210 213 212 209 208 206 205 210 220 231 238 248 257 261 268 274 272 268 268 270 273 275 274 274 277 281 276 269 272 281 287 286 281 278 278 278 275 271 268 267 262
198 204 209 207 200 194 192 199 207 216 223 226 233 244 244 246 259 266 265 266 269 273 274 273 274 278 279 273 266 264 271 282 284 280 277 276 276 275 273 270 269 269
182 189 193 190 182 177 182 193 203 213 225 229 233 240 243 242 247 253 257 261 265 267 268 270 272 278 280 275 270 267 263 266 275 279 279 277 276 275 273 272 271 269
167 167 173 175 166 165 182 201 211 222 231 237 241 249 254 249 247 250 251 252 257 260 263 267 271 277 281 279 277 272 267 267 273 279 281 280 279 277 275 274 275 273
175 173 180 179 167 173 199 209 217 227 232 242 256 265 267 261 255 257 256 254 256 260 266 274 279 280 281 284 286 284 279 279 279 280 282 282 282 281 278 277 278 278
191 188 186 175 159 168 184 188 199 218 229 244 259 262 261 255 250 252 255 257 260 264 270 278 282 283 288 292 293 291 289 286 283 281 283 284 283 282 280 278 278 278
178 175 167 158 151 154 157 154 158 171 180 196 213 220 225 227 232 243 252 258 261 262 267 277 285 295 300 298 294 292 290 287 284 282 282 282 282 284 284 283 283 282
152 155 153 152 151 150 149 145 142 141 141 143 144 142 143 146 148 149 160 190 246 289 329 345 353 350 335 321 312 300 292 289 287 284 282 281 281 283 286 290 292 292
138 143 141 138 137 134 133 132 129 125 122 121 120 121 121 119 115 107 98 86 67 48 36 25 14 4 358 352 344 330 313 298 288 285 284 282 281 282 284 289 292 292
128 131 131 128 126 125 124 123 120 116 114 114 114 115 115 112 109 102 88 71 52 39 26 9 357 352 348 344 341 336 329 318 305 295 289 286 284 281 280 283 287 289
127 131 134 132 129 127 124 121 119 116 114 113 110 111 115 114 111 104 91 66 33 19 8 354 348 345 342 339 336 332 327 322 315 307 299 292 286 282 280 282 285 289
128 138 142 140 138 135 129 126 125 123 122 121 120 122 122 117 112 99 69 37 13 4 2 355 349 346 345 346 344 337 329 322 317 313 307 297 288 284 282 284 288 293
117 128 132 133 135 132 127 123 123 122 121 120 122 128 128 123 120 89 14 357 352 354 356 353 349 349 352 353 354 349 342 332 326 322 314 300 291 287 287 290 294 300
113 123 127 128 129 127 123 119 117 113 108 105 106 111 112 114 120 308 298 305 323 336 340 340 340 342 346 349 351 351 347 341 336 330 319 306 301 299 301 309 319 334
200 174 150 137 133 133 131 128 126 119 108 98 91 82 73 67 47 351 320 316 323 326 326 326 327 330 335 340 342 346 349 345 337 329 316 301 294 294 319 32 67 98
218 220 230 233 205 179 161 155 150 136 121 104 74 49 33 19 356 330 316 311 311 312 311 309 310 317 325 331 334 340 348 347 337 324 303 272 242 205 159 136 134 136
Height
814 815 816 818 819 821 822 823 825 826 827 829 829 830 831 832 834 835 835 836 837 837 838 838 839 839 839 838 838 837 837 837 837 838 838 838 839 839 839 839 839 839
813 815 816 818 819 820 822 823 825 826 828 829 830 831 832 833 834 835 835 836 837 838 838 840 840 841 841 840 840 839 838 837 837 838 839 839 839 840 840 840 840 840
812 814 816 817 818 820 821 823 825 826 828 830 831 833 834 834 835 835 836 836 837 838 839 840 841 842 842 842 841 841 840 839 838 838 839 839 839 840 840 840 840 840
812 813 815 816 818 819 821 823 825 826 828 829 831 833 834 835 835 835 836 837 838 839 840 841 842 843 843 843 842 842 842 841 841 840 839 839 839 839 839 840 840 840
812 813 814 815 817 819 821 823 824 826 827 829 831 833 834 835 835 836 837 838 839 840 841 841 842 843 844 844 844 844 843 843 843 842 841 841 840 840 840 840 840 840
811 813 813 815 816 818 820 822 824 826 827 829 831 832 834 835 836 836 837 838 839 840 841 842 843 844 844 845 845 845 845 844 844 843 843 843 842 842 841 841 841 840
810 812 813 814 816 818 820 822 824 826 828 829 830 832 834 835 836 837 838 839 840 841 842 843 844 845 845 846 846 845 845 845 845 845 844 844 843 843 843 843 842 842
810 812 813 814 815 817 820 822 824 827 828 829 830 831 833 834 835 837 838 839 840 841 842 843 844 845 846 847 847 847 846 846 845 845 845 845 845 844 844 844 844 843
810 812 812 813 815 817 819 822 824 826 828 829 830 831 832 834 835 836 837 838 840 841 842 842 843 844 845 846 846 847 847 846 846 845 845 845 845 845 845 845 845 845
809 811 812 813 814 816 819 821 823 825 827 828 829 830 832 833 835 836 837 838 839 840 841 841 841 842 843 843 844 845 846 846 846 845 845 844 845 845 845 845 846 845
809 810 811 812 814 815 818 821 822 824 825 827 828 829 831 833 835 836 837 837 838 838 839 839 840 840 841 842 843 843 843 844 844 844 844 844 844 844 845 845 845 845
808 809 810 811 813 815 817 820 821 823 824 826 827 828 829 831 833 834 836 837 837 838 838 838 838 839 839 840 841 841 841 841 842 842 843 843 843 843 843 843 843 843
807 808 810 811 812 814 817 819 821 823 824 825 826 827 828 830 830 831 834 836 836 836 837 836 836 836 837 838 839 840 840 839 840 840 841 841 841 841 842 842 842 842
808 809 811 812 814 816 818 819 821 822 823 824 825 826 827 828 829 830 832 834 834 834 835 835 834 834 835 836 837 838 838 838 838 839 839 839 839 840 840 840 840 840
808 809 811 812 814 816 818 819 820 821 821 822 823 824 825 826 827 828 830 831 832 832 833 833 833 833 834 834 835 835 836 836 836 837 837 838 838 838 838 838 838 838
808 809 810 812 813 815 816 817 818 819 819 820 821 823 824 824 825 827 828 829 830 831 831 831 831 832 832 833 833 833 833 834 834 834 835 835 836 836 836 836 835 835
808 809 810 811 812 813 815 815 816 817 818 819 820 822 823 823 824 825 826 827 828 829 830 830 830 831 831 831 831 831 832 832 832 832 833 833 834 833 833 833 832 832
808 809 810 811 812 813 814 815 816 817 818 819 820 821 823 823 824 824 825 826 827 828 828 829 829 829 830 830 830 830 830 830 831 831 831 832 832 831 831 831 830 830
809 810 811 812 812 813 813 814 815 816 817 819 820 821 822 823 824 825 825 826 827 828 828 828 829 829 829 829 829 829 829 830 830 830 830 830 830 830 830 829 829 829
810 811 811 812 813 813 814 814 815 816 817 818 820 821 822 823 824 825 826 827 828 828 828 828 828 828 828 829 829 829 829 829 829 829 829 829 828 828 828 828 827 827
811 811 811 812 813 814 814 815 816 817 818 819 821 821 823 824 825 826 827 827 828 828 828 828 828 828 828 828 828 828 828 828 827 827 827 827 826 826 826 826 826 826
812 812 813 814 814 815 816 816 817 818 819 820 822 823 824 824 825 826 826 827 827 828 828 828 828 828 828 828 828 828 827 827 826 825 825 825 825 825 825 825 825 825
814 814 814 815 816 816 817 818 818 819 820 821 822 823 824 824 825 825 826 826 827 827 828 828 828 828 828 828 828 827 827 826 825 825 824 824 824 824 824 824 824 824
815 816 816 816 816 817 818 818 819 820 820 821 822 823 824 824 825 825 825 826 826 827 827 827 827 827 827 827 827 826 826 825 825 824 824 824 824 824 823 824 824 824
815 816 816 816 816 816 817 817 818 819 819 820 821 822 823 823 824 825 825 825 825 826 826 826 826 826 826 826 826 825 825 825 824 824 824 823 824 824 824 824 824 824
814 815 815 815 815 816 816 816 817 817 818 819 820 821 822 822 823 823 824 824 824 824 825 825 825 825 825 825 825 824 824 824 824 824 824 824 824 824 824 825 825 825